Regional Weather Roundup
Issued by NWS Jackson, KY

Home | Current Version | Previous Version | Graphics & Text | Print | Product List | Glossary On
Versions: 1 2 3 4 5 6 7 8 9 10 11 12 13 14 15 16 17 18 19 20 21 22 23 24 25 26 27 28
000
ASUS43 KJKL 250810
RWRJKL

EAST KENTUCKY HOURLY WEATHER ROUNDUP
NATIONAL WEATHER SERVICE JACKSON KY
400 AM EDT WED MAY 25 2016

NOTE: "FAIR" INDICATES FEW OR NO CLOUDS BELOW 12,000 FEET WITH
NO SIGNIFICANT WEATHER AND/OR OBSTRUCTIONS TO VISIBILITY.

* THESE REPORTS ARE NOT UNDER NWS QUALITY CONTROL AND MAY NOT
  REPORT WEATHER SUCH AS PRECIPITATION AND FOG.

KYZ079-080-083-085-087-088-110-112-115-119-120-250900
...EASTERN KENTUCKY...

CITY           SKY/WX    TMP DP  RH WIND       PRES   REMARKS
JACKSON        PTCLDY    61  47  59 S3        30.16S
LONDON         CLEAR     58  49  72 CALM      30.15S
SOMERSET*      PTCLDY    57  52  82 CALM      30.14S
MONTICELLO*    CLEAR     62  55  77 NE6       30.14S
WILLIAMSBURG*  SUNNY     59  54  82 SE9       30.15S
MIDDLESBORO*   CLEAR     52  51  97 CALM      30.19F
HARLAN APT*      N/A     52  50  93 CALM      30.19F
HAZARD APT*    SUNNY     55  52  88 E3        30.16S
BLACK MTN*       N/A     59  48  67 SW5         N/A
PIKE CO APT*     N/A     60  53  79 S3        30.17F
MOREHEAD APT*  MOSUNNY   61  50  67 SE6       30.15S
ASHLAND*       CLEAR     54  52  94 CALM      30.12S
$$

KYZ035-036-041-042-044-050-067-078-099-250900
...CENTRAL KENTUCKY...

CITY           SKY/WX    TMP DP  RH WIND       PRES   REMARKS
MT STERLING*   CLEAR     55  52  88 CALM      30.15R
FLEMING/MASON* CLEAR     60  50  68 CALM      30.13S
DANVILLE*      CLOUDY    59  54  82 SW3       30.13S
RICHMOND*      CLOUDY    63  48  59 SE5       30.12S
LEXINGTON      PTCLDY    63  50  62 SE6       30.12S
FRANKFORT      CLOUDY    63  52  67 SE5       30.10R
LOUISVILLE     MOCLDY    69  55  60 SE7       30.07S
LEBANON*         N/A     64  55  72 SE7       30.11R
GLASGOW*       CLOUDY    65  55  68 CALM      30.09S
BOWLING GREEN  CLOUDY    67  61  81 NE3       30.07S
$$

KYZ091>093-OHZ055-061-077-WVZ005-015-034-035-042-250900
...SOUTHERN OHIO/WEST VIRGINIA...

CITY           SKY/WX    TMP DP  RH WIND       PRES   REMARKS
COVINGTON      MOCLDY    62  50  64 S6        30.11R
COLUMBUS       CLEAR     56  52  86 CALM      30.10S
DAYTON         PTCLDY    65  47  52 S7        30.11R
WILMINGTON     PTCLDY    60  49  66 CALM      30.12R
HUNTINGTON       N/A     55  53  93 CALM      30.13S
CHARLESTON       N/A     54  52  93 CALM      30.15R
PINEVILLE*       N/A     50  47  90 MISG      30.25S
BECKLEY          N/A     52  47  83 CALM      30.21F
BLUEFIELD        N/A     56  46  69 SW7       30.24S
LOGAN CO APT*    N/A     57  54  88 CALM      30.18R
$$

VAZ002-007-008-TNZ017-027-036-066-071-250900
...SOUTHWEST VIRGINIA/EAST TENNESSEE...

CITY           SKY/WX    TMP DP  RH WIND       PRES   REMARKS
WISE*            N/A     55  41  58 CALM      30.24S
JONESVILLE*      N/A     52  50  93 CALM      30.21S
ABINGDON*        N/A     54  51  89 CALM      30.23S
BRISTOL        CLEAR     51  49  92 NE3       30.20S
SEVIERVILLE*   PTSUNNY   55  50  82 CALM      30.16S
KNOXVILLE      CLEAR     60  55  83 CALM      30.15S
OAK RIDGE      CLEAR     59  56  89 CALM      30.17S
CROSSVILLE     PTCLDY    65  52  62 CALM      30.17F
NASHVILLE      CLOUDY    67  56  67 S5        30.07S
$$

...KEY TO REMARKS...
VSB - VISIBILITY IN MILES
WCI - WIND CHILL INDEX
HX  - HEAT INDEX

$$




USA.gov is the U.S. government's official web portal to all federal, state and local government web resources and services.